CZ-6A DEB, 54270

Orbit data source: Space-Track

CZ-6A DEB, 54270 is space debris in SSO originally from a launch on Fri, 11 Nov 2022 UTC launched from the Taiyaun Space Center, China (TSC). Debris objects in space refer to the collection of defunct objects orbiting the Earth. Examples of debris include non-operational satellites, rocket bodies, and fragments generated from explosions, collisions, or faulty payload assembly.

Loading next visibility...
Identifier
54270, 2022-151M
Orbit
SSO
Country
Flag of CNCN / PRC
Related business
Manufacturer
SAST
Mission
Spacecraft
Bus & Motor
Unknown
Mass
Unknown
Launch date (UTC)
2022-11-11 (3 years ago)
Launch vehicle
Unknown
Launch site
Taiyaun Space Center, China (TSC)
Object type
Payload
Rocket body
Debris
Shape & HBR
Unknown shape, 0.8 m
Radar Cross Section
Medium (>0.1 m² and <1 m²)

Expand to show TLE details & history
Last TLE update: 6 hours ago

TLE from 6 hours ago
0 CZ-6A DEB
1 54270U 22151M   26130.23408824  .00000064  00000-0  67421-4 0  9996
2 54270  98.8951 118.6616 0084832 140.6498 220.0873 14.02333824178105
Epoch: 2026-05-10T05:37Z
TLE epoch observation values (Epoch: 2026-05-10T05:37:05.223Z)
Latitude
-0.00006°
Longitude
166.34975°
Altitude
935.977 km
Speed
7.36 km/s
True Right ascension
07h 54m 38s
True Declination
0° 00' 00"
Sunlit
Object was in daylight at epoch
Visualization orbit readout
Latitude
Unknown
Longitude
Unknown
Altitude
Unknown
Speed
Unknown
Apparent Right ascension
Unknown
Apparent Declination
Unknown
Sunlit
N/A
Visualization observer readout
Local Sidereal Time
19:53:20
Azimuth
Unknown
Elevation
Unknown
Doppler factor
Unknown
Orbital elements
Apogee altitude
944.513 km
Perigee altitude
821.319 km
Semi-major axis
7,261.053 km
Eccentricity
0.00848
Inclination
98.8951°
RAAN
118.6616°
Arg. of periapsis
140.6498°
True anomaly
219.46636°
Mean anomaly
220.0873°
Eccentric anomaly
219.77633°
Mean motion
3.50787 °/min
Orbital period
102.63 mins
BSTAR
0.000067421
Loading maneuver chart data...
Computing Atmospheric mass density...
Loading historical data...
Loading historical data...
Loading historical data...
Loading historical data...
Loading historical data...
Loading historical data...
Loading historical data...

Documentation

Showing up to 5 results
|